Regional Weather Roundup
Issued by NWS Cleveland, OH

Home | Current Version | Previous Version | Graphics & Text | Print | Product List | Glossary On
Versions: 1 2 3 4 5 6 7 8 9 10 11 12 13 14 15 16 17 18 19 20 21 22 23 24 25 26 27 28 29 30 31 32 33 34 35 36 37 38 39 40 41 42 43 44 45 46 47 48 49 50
000
ASUS41 KCLE 241910
RWRCLE
OHIO REGIONAL WEATHER ROUNDUP
NATIONAL WEATHER SERVICE CLEVELAND, OH
300 PM EDT SUN SEP 24 2017

NOTE: "FAIR" INDICATES FEW OR NO CLOUDS BELOW 12,000 FEET WITH NO
SIGNIFICANT WEATHER AND/OR OBSTRUCTIONS TO VISIBILITY.

OHZ001>008-015>018-024>027-034-035-043-044-242000-
   NORTHWEST OHIO

CITY           SKY/WX    TMP DP  RH WIND       PRES   REMARKS
DEFIANCE       SUNNY     89  56  32 VRB5      30.09F
FINDLAY        SUNNY     90  59  35 VRB7      30.09F
TOLEDO EXPRESS SUNNY     91  59  33 E8G16     30.10F HX  90
TOLEDO EXEC    SUNNY     91  60  35 VRB7      30.11F HX  90
LIMA           SUNNY     91  55  29 SE13G20   30.10F
$$

OHZ009>014-019>023-028>033-038-089-242000-
   NORTHEAST OHIO

CITY           SKY/WX    TMP DP  RH WIND       PRES   REMARKS
CLE-HOPKINS    MOSUNNY   91  66  43 N14       30.13F HX  93
CLE-LAKEFRONT  SUNNY     82  70  66 N7        30.11F
CUY CO. ARPT   SUNNY     91  66  43 E9        30.13F HX  94
LORAIN-ELYRIA  MOSUNNY   88  64  44 N9        30.11F
ASHTABULA      SUNNY     88  66  48 VRB7      30.13F HX  90
AKRON-CANTON   MOSUNNY   91  57  31 E9        30.13F
WOOSTER        SUNNY     89  60  37 E10       30.13F
MANSFIELD      SUNNY     88  62  41 E6G16     30.13F
YOUNGSTOWN     MOSUNNY   90  63  40 NE7       30.13F HX  91
$$

OHZ042-051>053-060>062-070>072-077>081-242000-
  SOUTHWEST OHIO

CITY           SKY/WX    TMP DP  RH WIND       PRES   REMARKS
CINC-COVINGTON MOSUNNY   88  55  32 E8        30.08F
CINC-LUNKEN    SUNNY     91  53  27 E8        30.06F
HAMILTON       SUNNY     89  58  34 E5        30.08F
DAYTON         MOSUNNY   88  54  31 SE8       30.10F
WRIGHT-PAT AFB SUNNY     90  50  25 SE7       30.08F
DAYTON GENERAL SUNNY     88  52  29 SE7       30.09F
WILMINGTON     SUNNY     86  57  37 SE9G17    30.09F
$$

OHZ036-037-039>041-045>050-054>059-063>069-073>076-082>088-242000-
  CENTRAL AND SOUTHEAST OHIO

CITY           SKY/WX    TMP DP  RH WIND       PRES   REMARKS
COLUMBUS       MOSUNNY   90  59  35 SE12      30.09F
OSU AIRPORT    SUNNY     87  60  40 SE10G16   30.10F
BOLTON FIELD   SUNNY     88  61  40 E9G16     30.11F
RICKENBACK AFB SUNNY     87  59  39 E6        30.09F
NEWARK         SUNNY     89  57  33 E8        30.10F
MARION         SUNNY     90  56  31 VRB3      30.11F
LANCASTER      SUNNY     86  62  44 SE13      30.11F
ZANESVILLE     SUNNY     88  58  36 E10       30.10F
NEW PHILLY     NOT AVBL
$$




USA.gov is the U.S. government's official web portal to all federal, state and local government web resources and services.